GFSSW_700_rhum_228.txt.gz
RH
100 96 100 92 31 26 30 27 25 25 25 24 23 22 22 22 23 26 24 29 26 24 24 27 29 28 27 23 20 18 19 18 17 17 16 30 30 33 28 26 27 28 38 37 35
99 100 100 98 100 70 27 28 32 28 26 28 25 23 23 22 20 22 25 27 28 28 25 27 32 32 29 27 23 22 19 19 20 21 22 24 31 32 29 28 30 29 28 30 26
97 100 100 100 96 100 98 65 26 29 32 29 29 26 26 24 22 18 22 25 27 30 30 28 30 32 30 29 26 24 19 22 22 24 27 22 30 33 33 30 29 28 29 33 28
86 95 100 100 99 98 100 98 100 39 27 31 33 31 29 27 28 21 18 22 25 28 32 32 29 29 29 28 29 28 22 25 24 26 28 26 27 31 34 32 32 28 27 25 27
23 56 98 100 100 100 100 100 94 99 75 28 26 32 34 30 21 31 24 22 22 25 29 32 33 34 32 29 32 34 25 30 32 33 27 32 26 33 31 31 34 33 29 26 24
17 17 29 98 99 100 100 100 98 89 100 100 59 27 25 24 24 32 31 30 26 27 28 30 32 35 33 30 34 35 31 32 33 32 30 30 33 38 27 30 33 33 32 29 26
11 18 32 23 95 99 98 100 99 96 95 98 100 96 57 14 20 27 30 30 35 32 37 41 39 37 34 32 34 36 36 29 27 23 27 33 33 30 25 31 33 34 33 32 30
35 47 30 42 34 83 97 98 100 100 100 100 100 100 96 66 40 21 24 31 32 39 40 49 44 39 37 34 38 41 47 36 21 21 22 27 28 22 25 30 31 31 32 33 31
67 71 65 50 41 34 39 94 99 98 100 100 100 100 97 75 74 69 40 21 32 34 38 52 57 46 42 39 40 46 49 37 26 29 31 32 29 18 23 25 27 31 33 34 34
79 68 63 90 82 81 32 23 53 87 97 99 99 100 96 94 78 76 86 52 25 31 40 37 44 52 51 56 51 47 41 34 34 32 33 35 32 23 21 25 31 26 27 31 33
96 86 73 61 98 96 79 39 31 43 50 90 96 98 89 92 82 78 82 76 60 30 34 43 46 42 44 48 48 45 39 43 39 33 37 40 40 34 26 22 31 34 33 32 35
87 93 96 80 53 80 95 57 46 55 44 40 92 98 99 100 92 96 94 85 77 85 41 49 42 29 42 41 43 45 47 45 45 37 43 41 38 37 34 24 24 29 34 34 34
81 87 96 97 97 60 82 100 100 90 80 37 37 64 86 100 98 98 92 84 72 67 70 49 20 28 45 43 42 40 47 49 48 46 44 49 40 36 27 28 24 20 27 33 31
47 71 88 96 97 85 57 79 93 99 83 71 59 31 43 61 99 100 100 93 95 78 61 65 63 60 38 43 45 44 44 52 59 66 62 45 48 42 39 31 23 24 19 26 32
31 38 55 93 84 94 95 63 54 98 99 32 40 55 40 49 66 96 99 100 99 98 89 62 62 59 64 45 66 50 56 58 56 68 68 53 67 52 47 41 33 24 20 18 30
18 30 53 69 67 79 97 96 79 96 92 32 40 62 59 47 42 72 91 100 100 100 99 76 84 76 65 50 59 69 67 71 72 78 81 58 54 39 40 38 28 20 20 19 22
17 28 33 79 87 96 96 96 97 96 55 43 42 64 78 70 73 75 89 98 98 100 99 99 97 91 78 71 68 80 80 73 82 85 70 47 47 41 33 34 31 22 22 18 18
21 27 41 47 88 96 97 100 96 70 55 74 85 69 97 100 99 97 99 98 98 98 91 96 95 98 91 79 70 73 79 71 77 64 54 52 46 35 31 29 25 23 23 20 17
35 45 54 67 70 96 98 96 73 49 36 35 70 91 94 96 99 98 99 97 92 95 98 90 96 82 90 78 79 78 90 73 60 64 68 45 41 41 38 36 32 28 25 23 23
40 52 57 98 98 89 98 95 56 41 44 41 51 53 68 71 95 95 91 84 88 92 99 92 90 78 75 80 90 80 68 86 87 96 85 49 48 40 35 32 27 25 26 26 27
45 72 61 99 97 100 85 48 47 65 71 60 46 43 40 49 80 92 98 68 68 80 94 93 90 75 70 85 82 92 76 85 94 89 83 62 45 39 36 35 33 26 26 32 33
88 99 86 85 95 91 68 75 79 90 94 84 67 58 48 39 35 54 97 98 99 99 96 87 98 95 82 77 78 69 72 85 90 86 88 68 60 41 36 30 34 33 31 32 31
100 99 94 98 97 74 89 76 95 96 100 97 82 70 60 56 64 54 40 47 87 98 98 96 98 98 98 97 96 95 74 74 72 65 75 74 54 39 42 38 37 36 32 36 34
98 97 93 85 87 94 81 92 98 81 78 98 94 88 75 62 62 63 51 34 51 80 95 98 98 98 91 74 75 99 94 85 79 81 66 69 49 48 45 46 44 38 38 40 40
100 95 93 89 74 92 94 88 61 63 88 97 94 80 94 90 85 73 57 43 32 45 99 97 96 95 98 79 71 68 80 81 84 82 80 66 65 41 55 47 47 43 42 39 38
100 98 89 97 94 76 67 65 73 76 100 96 76 46 88 95 86 61 55 52 44 50 66 78 94 95 96 97 100 83 84 84 79 77 74 72 71 34 62 58 54 50 47 41 35
76 98 98 91 94 98 91 87 74 85 77 67 61 69 98 40 27 36 76 68 62 58 67 82 88 92 89 92 96 95 98 96 98 89 79 73 50 45 53 50 53 52 52 47 40

GFSSW_700_rhum_231.txt.gz
RH
99 100 100 99 100 95 40 29 31 26 27 28 26 24 22 22 23 23 24 27 29 27 27 27 28 28 26 25 22 20 23 20 19 17 17 23 33 32 27 24 22 21 24 27 26
80 100 100 100 100 97 99 72 28 33 32 28 29 26 26 22 20 21 23 25 28 29 28 30 28 30 28 29 26 23 23 20 19 18 18 18 31 33 29 26 24 24 29 32 25
28 59 98 100 100 100 93 100 98 47 28 34 32 29 28 25 22 15 20 22 25 28 29 32 29 29 31 32 27 25 23 22 21 22 22 21 21 32 32 27 27 30 29 30 29
6 18 36 99 100 100 100 99 98 100 73 30 31 36 35 30 27 20 17 18 22 25 29 32 32 29 28 30 28 26 23 24 22 25 26 26 22 29 33 28 27 29 30 29 32
9 7 14 23 90 100 100 100 100 93 99 93 65 31 33 35 22 29 27 19 18 20 25 29 31 32 31 29 31 27 22 25 24 24 25 29 24 28 29 30 30 28 29 30 26
53 29 10 22 18 63 99 100 100 100 98 100 100 99 36 24 23 34 33 29 29 23 22 26 29 30 32 34 34 31 27 28 27 23 25 26 32 29 20 31 33 30 30 29 28
55 51 43 25 34 16 34 92 100 100 100 100 100 100 97 28 23 26 32 33 31 32 30 35 33 31 32 33 36 38 33 31 27 23 23 27 31 21 20 24 32 33 29 32 31
74 67 66 58 88 72 30 21 72 100 100 100 100 100 95 83 75 37 27 31 34 37 36 40 47 45 41 40 38 40 39 38 27 26 23 28 28 17 20 26 26 31 33 31 30
71 83 77 79 65 83 80 33 21 30 98 100 100 99 97 84 90 91 60 30 37 37 41 52 54 51 50 50 46 52 55 45 30 28 28 30 34 19 22 22 25 28 31 32 31
63 74 92 93 80 73 92 98 74 39 28 97 99 99 99 99 92 84 99 88 36 39 41 54 63 58 53 60 60 56 54 51 36 30 31 35 33 28 30 27 23 25 24 26 29
49 78 86 92 94 82 75 94 78 65 42 41 96 98 100 100 99 98 97 100 99 42 34 44 48 46 42 54 54 50 49 50 44 37 36 32 40 40 28 31 28 24 24 24 26
31 53 80 85 90 91 79 82 98 97 74 65 60 94 99 97 100 100 100 98 98 97 43 45 42 28 43 48 49 54 53 55 56 48 41 38 32 31 33 29 26 26 27 26 33
15 29 44 70 83 83 92 67 83 98 99 64 48 51 86 99 99 100 100 99 92 86 92 47 24 26 45 40 44 43 55 61 60 56 49 50 37 22 30 26 24 25 26 27 27
14 20 28 38 72 84 91 82 72 93 95 61 33 31 49 89 97 100 100 100 99 94 92 90 68 41 32 33 38 47 48 52 60 66 54 43 43 31 30 34 25 21 22 25 24
15 17 22 29 36 62 82 100 78 95 96 42 40 54 36 63 80 83 99 99 99 97 96 87 95 81 70 51 47 33 50 63 64 67 68 62 65 28 31 39 32 21 18 20 20
16 17 24 31 31 49 63 84 96 98 90 42 52 68 88 72 75 86 92 99 99 100 99 80 70 79 76 72 71 65 66 76 79 76 69 56 58 36 31 31 27 20 17 17 20
15 18 22 62 46 79 90 98 96 95 44 41 38 85 90 67 73 88 90 99 99 99 99 99 99 95 70 68 80 93 96 99 100 96 67 49 55 41 32 29 29 24 20 19 18
13 16 25 51 81 90 98 98 96 56 38 34 91 58 94 97 93 91 100 99 99 99 100 99 98 99 92 90 83 93 84 83 80 65 51 54 49 42 35 33 28 27 27 20 17
9 13 16 64 97 92 99 97 71 63 55 44 58 85 83 80 98 98 94 97 92 96 98 99 99 95 94 78 88 91 98 86 93 88 86 52 44 44 41 37 34 28 26 21 19
15 12 14 55 96 96 98 66 95 76 65 56 54 50 58 74 78 94 97 97 98 99 97 92 94 82 76 90 92 83 80 99 99 97 86 51 51 48 34 32 31 29 25 25 23
45 35 53 82 98 98 84 92 85 81 74 72 61 52 46 41 54 64 97 80 77 82 99 94 98 93 89 99 90 100 97 99 99 83 69 55 40 36 35 32 33 30 27 24 24
86 81 83 97 97 98 87 80 91 100 92 87 82 71 60 58 52 47 44 49 99 100 99 99 99 99 95 99 84 84 62 94 91 93 89 69 60 39 36 33 33 31 27 32 29
81 69 70 90 97 95 100 99 98 100 100 94 86 77 68 72 70 57 46 33 39 55 90 98 99 98 93 98 99 95 85 74 73 62 70 72 48 37 42 41 36 34 29 28 30
91 94 77 82 84 81 88 95 98 94 94 94 89 96 96 94 84 79 64 35 44 49 54 75 94 97 91 87 96 92 87 87 81 88 70 67 49 45 41 45 42 39 34 34 32
79 77 83 92 90 97 100 83 94 100 95 97 100 100 100 97 91 68 44 34 36 49 71 83 92 97 96 95 94 96 97 98 94 87 85 66 66 57 49 42 46 43 38 36 38
78 75 63 68 97 99 94 97 97 97 94 86 99 92 93 95 59 66 72 63 53 61 71 82 76 77 85 62 80 92 90 92 96 99 100 78 72 48 61 62 58 53 45 37 38
46 66 94 67 95 98 96 78 89 95 80 92 89 90 78 28 89 71 84 82 75 76 77 77 71 79 83 66 80 91 62 68 59 87 100 98 56 59 36 48 51 54 51 44 38

GFSSW_700_rhum_234.txt.gz
RH
15 45 89 99 100 98 93 92 59 30 28 24 24 24 24 22 22 24 23 26 30 30 29 30 29 27 24 22 21 20 30 23 23 27 22 23 31 18 22 25 22 22 20 27 26
9 4 26 83 99 100 100 100 100 82 30 33 27 26 26 25 21 19 21 25 28 30 31 31 31 30 28 27 25 25 30 25 27 26 26 28 34 35 23 29 24 22 19 26 30
25 20 3 13 63 97 100 100 100 96 94 52 32 32 27 26 26 15 18 21 24 27 30 34 36 34 34 32 29 25 30 30 23 21 22 32 28 35 32 28 30 34 27 28 28
30 35 26 5 6 36 99 100 100 100 99 99 79 31 36 31 30 21 17 19 20 23 28 32 34 35 45 42 37 27 20 26 32 30 22 22 33 34 31 29 32 24 24 27 25
39 42 42 39 13 4 21 98 100 100 100 100 100 96 40 32 23 27 25 19 19 21 22 28 32 33 47 45 46 29 24 22 24 24 25 36 24 25 24 30 32 27 27 27 26
48 50 49 49 43 25 4 13 83 100 100 100 100 100 100 48 28 31 32 29 23 21 21 23 29 33 44 46 45 39 25 28 29 24 25 26 37 26 19 24 32 29 27 27 28
46 54 58 53 53 48 29 10 11 67 100 100 100 100 99 95 61 31 32 34 31 32 25 25 30 37 35 41 40 45 32 29 33 28 28 30 40 22 20 30 29 30 27 27 28
45 45 48 58 59 66 58 47 41 16 60 99 99 99 97 100 99 73 28 30 36 36 42 40 37 38 48 54 40 47 47 39 35 41 31 30 29 26 30 24 24 30 34 31 28
50 49 42 54 60 67 66 60 53 79 56 87 98 99 96 99 100 100 69 30 35 39 42 43 52 51 50 62 50 48 37 39 33 38 38 31 29 27 26 28 23 26 30 33 33
23 25 27 50 69 71 68 67 63 84 90 100 96 96 96 97 100 100 100 80 36 42 50 58 61 67 60 61 44 36 44 38 39 37 33 32 31 29 28 22 29 29 29 30 32
14 14 21 28 71 80 74 81 73 74 76 68 83 95 95 99 98 98 100 100 62 56 45 55 80 64 46 54 47 36 36 42 37 39 41 35 31 32 32 32 36 35 34 31 24
13 14 13 18 31 55 82 81 94 82 78 83 91 70 63 99 99 100 100 100 100 73 72 83 69 23 53 50 57 53 44 39 37 46 50 38 34 35 36 35 35 37 34 36 33
10 12 14 15 19 38 79 89 85 84 94 63 60 52 32 57 96 99 99 100 100 100 90 63 33 44 52 58 61 56 48 41 40 43 51 46 40 34 33 35 37 40 36 35 30
11 12 14 15 37 81 88 96 98 97 92 73 42 30 36 49 60 98 98 99 100 99 100 90 53 45 52 61 58 56 48 48 46 48 44 42 35 26 23 23 25 29 36 21 21
8 11 14 17 55 77 71 66 92 97 90 56 80 61 56 56 42 65 98 99 99 100 100 94 97 65 45 47 54 48 42 48 54 48 43 37 35 27 26 25 24 24 28 32 15
8 8 11 20 48 62 74 84 84 96 72 50 47 98 99 72 41 79 88 99 99 99 99 98 100 90 78 52 51 47 56 48 56 53 47 38 35 29 26 27 30 26 28 31 18
11 8 8 13 30 60 83 90 98 93 48 44 60 76 98 100 99 99 99 97 99 99 99 96 99 98 84 66 74 63 65 95 93 68 48 34 35 34 28 31 30 29 27 30 34
13 10 7 12 24 55 79 99 97 61 67 53 68 62 71 97 100 98 98 98 96 99 99 99 98 99 97 92 94 97 94 76 73 62 44 43 39 36 35 35 37 36 30 24 24
15 14 11 15 20 64 93 100 77 70 75 66 50 44 41 68 89 98 85 74 99 97 98 99 99 100 94 78 82 98 99 73 70 80 58 39 39 40 40 38 36 33 32 29 18
18 16 21 33 44 72 99 85 92 94 88 75 55 46 41 40 59 94 97 88 84 93 98 98 97 95 96 100 97 98 92 99 100 99 86 42 39 34 32 35 38 37 23 26 28
35 45 37 53 86 92 92 100 96 96 96 97 69 59 52 47 49 53 60 88 98 99 99 98 99 86 99 100 98 99 100 99 98 83 57 44 31 28 30 35 34 37 37 29 27
60 54 38 76 88 94 94 93 92 70 88 100 99 86 72 62 60 58 57 54 69 90 96 97 98 98 89 79 92 96 94 99 97 93 68 55 53 39 37 36 27 28 31 30 32
73 66 31 43 84 96 88 97 97 98 99 91 88 87 82 74 73 59 58 58 64 60 63 88 96 97 98 85 96 100 98 99 85 71 72 69 50 39 42 43 35 32 33 28 28
75 87 56 41 47 72 92 94 99 93 96 96 98 96 90 92 75 68 43 63 79 88 90 94 85 91 91 97 96 97 97 98 99 96 81 68 51 41 41 43 40 39 36 32 29
71 82 82 86 63 85 99 96 100 96 96 96 96 88 81 96 95 95 84 80 77 76 69 80 92 96 93 95 96 96 94 92 95 96 98 65 58 49 44 47 42 40 39 39 39
79 80 72 79 97 100 100 98 98 94 94 97 99 96 88 97 96 91 87 89 83 83 85 92 94 92 97 89 84 73 74 81 96 93 96 86 81 72 52 47 48 51 60 53 37
83 80 86 65 100 100 97 100 93 100 88 98 94 100 96 95 95 94 98 99 97 92 90 92 92 88 69 68 71 75 65 70 71 82 90 92 57 80 81 65 65 68 69 61 40

GFSSW_700_rhum_237.txt.gz
RH
3 3 3 3 15 61 98 100 92 92 64 28 24 22 26 27 24 25 23 27 29 29 31 30 29 26 27 43 40 37 31 24 19 19 18 18 22 22 25 27 30 35 44 48 22
5 5 6 7 7 7 54 93 100 96 91 94 38 28 23 27 26 19 22 25 27 29 31 31 30 31 46 42 39 37 29 23 18 18 20 20 23 23 24 21 27 36 36 25 23
9 9 10 12 12 16 4 44 92 100 100 97 100 55 30 27 26 12 19 21 26 28 30 34 36 51 51 44 40 38 32 26 23 24 22 22 23 25 29 21 20 26 44 21 27
14 13 13 18 22 18 23 6 27 91 100 100 100 100 76 35 35 34 18 18 22 27 28 31 34 48 49 46 38 37 32 29 26 28 27 23 24 24 25 25 22 27 39 46 23
17 19 19 22 28 26 22 26 15 14 64 100 100 100 100 96 23 30 32 21 20 24 24 27 32 38 48 44 39 38 35 30 31 30 30 30 27 26 27 27 27 31 34 47 50
19 22 31 29 29 32 32 36 36 23 5 47 100 100 100 96 90 48 39 26 21 21 22 25 28 37 44 43 38 36 35 34 29 33 32 32 32 31 21 26 25 29 32 33 45
18 25 35 37 35 32 36 37 42 43 28 13 46 99 99 94 99 50 43 41 32 33 27 22 27 48 45 40 39 37 36 36 33 31 33 33 32 32 20 25 25 27 30 32 35
10 26 35 42 41 36 31 42 44 50 45 41 48 40 94 100 100 99 66 33 37 40 36 70 63 55 50 43 42 39 39 36 30 32 33 34 27 27 27 27 26 28 29 31 31
6 12 19 28 30 29 30 44 49 53 54 54 75 87 70 97 100 100 100 57 41 37 49 56 78 64 56 49 45 42 36 34 28 27 31 34 29 24 22 25 27 26 28 30 30
6 7 13 15 16 18 23 33 55 60 72 82 89 82 27 76 98 99 100 94 58 56 48 65 82 74 59 48 42 38 36 30 26 25 25 27 29 26 22 22 23 25 25 27 29
7 8 7 12 14 14 18 22 80 100 85 68 85 73 73 75 97 97 100 100 75 97 76 45 82 62 44 40 38 30 29 28 27 23 25 29 28 26 23 22 23 25 23 25 26
8 8 8 8 12 14 14 34 79 100 75 74 46 42 44 81 52 98 99 99 98 91 78 67 81 49 42 39 42 38 29 25 24 28 28 30 30 26 21 22 24 26 26 25 26
7 7 8 8 9 14 52 76 87 95 98 42 36 46 94 79 34 45 98 99 99 98 98 71 54 35 47 39 35 37 34 28 25 26 30 31 33 29 24 21 24 25 27 28 29
8 7 6 6 12 35 60 88 81 68 96 71 70 90 86 98 69 21 88 99 98 99 95 94 55 53 54 49 42 38 33 33 30 27 28 34 32 27 23 22 24 25 28 29 29
10 9 8 7 6 41 87 61 81 82 88 44 48 76 92 85 68 57 51 99 98 98 99 96 83 54 52 45 43 39 34 35 38 34 30 27 31 28 25 21 20 21 23 27 30
11 11 10 9 8 24 44 60 96 93 72 46 47 66 90 97 97 97 93 98 99 98 99 99 94 77 58 53 43 38 38 41 43 42 39 34 28 25 23 20 18 18 18 20 21
12 12 12 11 8 11 41 83 96 84 57 38 48 78 82 96 100 100 94 99 98 98 98 96 98 99 95 72 48 44 45 60 64 55 56 37 30 27 21 20 19 18 19 21 24
13 12 12 15 10 10 54 85 96 59 68 58 43 41 39 59 95 98 99 98 99 98 98 98 98 98 99 98 67 55 60 84 71 61 44 39 32 26 22 22 26 24 25 27 28
15 13 12 16 14 28 64 100 68 59 88 80 49 42 30 44 84 94 97 95 99 98 99 97 98 92 98 100 96 76 56 62 51 40 42 35 35 29 28 25 25 28 29 31 32
20 15 67 30 60 56 76 87 74 67 71 79 72 53 64 50 64 67 76 97 97 98 98 98 98 94 90 100 100 100 84 81 82 100 94 34 32 32 30 29 28 32 32 32 34
41 97 89 52 69 85 100 100 91 76 66 62 62 65 56 53 69 82 74 91 91 93 97 98 99 94 94 98 98 99 100 99 96 100 65 45 31 28 27 28 30 32 34 35 37
90 85 86 35 79 88 89 98 91 85 84 77 80 80 70 56 50 46 51 65 82 84 92 96 96 97 98 94 92 98 98 100 97 99 76 46 39 28 31 31 33 33 34 35 38
79 76 80 81 75 90 90 95 96 91 90 83 82 78 78 66 59 54 50 55 78 95 90 86 96 90 70 88 99 99 99 99 99 95 82 73 50 40 40 37 35 39 40 43 34
89 85 78 73 85 100 93 95 93 95 92 85 93 93 85 80 72 69 69 87 93 93 93 87 88 96 94 97 96 95 97 96 97 99 98 73 48 37 37 38 39 46 42 40 34
80 81 98 98 84 97 91 92 89 87 83 98 80 100 88 80 75 72 67 76 78 86 77 93 82 76 95 94 97 95 93 96 97 92 98 67 58 44 40 46 45 54 40 36 37
94 78 75 100 100 96 89 86 78 71 93 93 97 94 92 92 80 81 79 84 84 78 88 91 95 96 88 77 78 75 72 73 73 91 88 95 87 70 56 65 55 52 46 46 49
81 85 100 81 100 95 90 85 75 73 87 97 90 95 96 92 96 98 98 96 89 90 91 96 96 89 69 66 66 64 59 62 62 60 75 77 64 71 70 72 75 79 72 58 58